Weather History for KEVW - October, 2013

Change the Weather History Date:

Wednesday, October 9, 2013

  Actual Average Record
Temperature  
Mean Temperature 49 °F 47 °F  
Max Temperature 61 °F 59 °F 75 °F (1996)
Min Temperature 37 °F 34 °F 26 °F (2001)
Degree Days  
Heating Degree Days 16 18  
Month to date heating degree days 173 151  
Since 1 July heating degree days 452 548  
Cooling Degree Days 0 0  
Month to date cooling degree days 0 0  
Year to date cooling degree days 348 162  
Moisture  
Dew Point 26 °F    
Average Humidity 44    
Maximum Humidity 64    
Minimum Humidity 24    
Precipitation  
Precipitation 0.00 in 0.03 in 0.06 in (2001)
Month to date precipitation 0.12 0.27  
Year to date precipitation 4.18 9.61  
Sea Level Pressure  
Sea Level Pressure 29.71 in    
Wind  
Wind Speed 9 mph (ENE)    
Max Wind Speed 17 mph    
Max Gust Speed 24 mph    
Visibility 10 miles    
Events      
T = Trace of Precipitation, MM = Missing Value Source: NWS Daily Summary

Daily Weather History Graph

Daily Weather History Graph

Search for Another Location

Airport or City:

Trip Planner

Search our weather history database for the weather conditions in past years. The results will help you decide how hot, cold, wet, or windy it might be!

Date:

Astronomy

Oct. 09, 2013 Rise Set
Actual Time 7:29 AM MDT 6:52 PM MDT
Civil Twilight 7:01 AM MDT 7:19 PM MDT
Nautical Twilight 6:30 AM MDT 7:51 PM MDT
Astronomical Twilight 5:57 AM MDT 8:23 PM MDT
Moon 12:30 PM MDT (10/9) 10:28 PM MDT (10/9)
Length of Visible Light 12h 17m
Length of Day
11h 22m
Waxing Crescent, 26% of the Moon is Illuminated
Oct 9
Waxing Crescent
Oct 11
First Quarter
Oct 18
Full
Oct 26
Last Quarter
Nov 3
New

Hourly Weather History & Observations

Time (MDT) Temp. Windchill Dew Point Humidity Pressure Visibility Wind Dir Wind Speed Gust Speed Precip Events Conditions
12:53 AM 42.1 °F 38.4 °F 23.0 °F 47% 29.70 in 10.0 mi North 5.8 mph - N/A   Overcast
1:53 AM 39.0 °F 33.4 °F 25.0 °F 57% 29.71 in 10.0 mi NNE 8.1 mph - N/A   Overcast
2:53 AM 37.0 °F 33.3 °F 26.1 °F 65% 29.71 in 10.0 mi North 4.6 mph - N/A   Overcast
3:53 AM 37.0 °F 34.5 °F 26.1 °F 65% 29.70 in 10.0 mi North 3.5 mph - N/A   Partly Cloudy
4:53 AM 37.9 °F 34.4 °F 25.0 °F 60% 29.70 in 10.0 mi NNE 4.6 mph - N/A   Overcast
5:53 AM 37.0 °F 32.4 °F 26.1 °F 65% 29.72 in 10.0 mi NE 5.8 mph - N/A   Mostly Cloudy
6:53 AM 39.9 °F 35.8 °F 25.0 °F 55% 29.71 in 10.0 mi ENE 5.8 mph - N/A   Overcast
7:53 AM 39.9 °F 32.9 °F 26.1 °F 58% 29.73 in 10.0 mi East 11.5 mph - N/A   Clear
8:53 AM 43.0 °F 35.1 °F 27.0 °F 53% 29.74 in 10.0 mi ENE 17.3 mph - N/A   Mostly Cloudy
9:53 AM 46.9 °F - 28.0 °F 48% 29.74 in 10.0 mi ENE 15.0 mph - N/A   Scattered Clouds
10:53 AM 50.0 °F - 26.1 °F 39% 29.74 in 10.0 mi ENE 9.2 mph - N/A   Clear
11:53 AM 55.9 °F - 27.0 °F 33% 29.69 in 10.0 mi East 10.4 mph - N/A   Clear
12:53 PM 57.9 °F - 21.9 °F 25% 29.68 in 10.0 mi SSW 11.5 mph 19.6 mph N/A   Scattered Clouds
1:53 PM 55.0 °F - 24.1 °F 30% 29.70 in 10.0 mi West 5.8 mph - N/A   Overcast
2:53 PM 57.9 °F - 23.0 °F 26% 29.69 in 10.0 mi ESE 17.3 mph 24.2 mph N/A   Overcast
3:00 PM 55.4 °F - 23.0 °F 29% 29.85 in 10.0 mi Variable 5.8 mph 24.2 mph N/A   Overcast
3:53 PM 57.0 °F - 24.1 °F 28% 29.68 in 10.0 mi SSE 12.7 mph 18.4 mph N/A   Scattered Clouds
4:53 PM 55.9 °F - 25.0 °F 30% 29.68 in 10.0 mi SSE 9.2 mph - N/A   Mostly Cloudy
5:53 PM 53.1 °F - 26.1 °F 35% 29.70 in 10.0 mi East 4.6 mph - N/A   Overcast
6:53 PM 53.1 °F - 26.1 °F 35% 29.69 in 10.0 mi SE 3.5 mph - N/A   Overcast
7:53 PM 50.0 °F - 26.1 °F 39% 29.71 in 10.0 mi SSE 4.6 mph - N/A   Scattered Clouds
8:53 PM 48.9 °F - 27.0 °F 43% 29.70 in 10.0 mi SSE 5.8 mph - N/A   Mostly Cloudy
9:53 PM 45.0 °F 43.5 °F 28.0 °F 52% 29.70 in 10.0 mi Variable 3.5 mph - N/A   Clear
10:53 PM 45.0 °F 41.8 °F 28.9 °F 53% 29.69 in 10.0 mi North 5.8 mph - N/A   Mostly Cloudy
11:53 PM 44.1 °F 39.0 °F 30.9 °F 60% 29.66 in 10.0 mi NNE 9.2 mph - N/A   Scattered Clouds